Seldovia, AK

1:49 AM AKST on November 19, 2017 (GMT -0900)
Seldovia

Weather History for PASO - October, 2012

Change the Weather History Date:

Sunday, October 28, 2012

  Actual Average (PAHO) Record (PAHO)
Temperature  
Mean Temperature 28 °F -  
Max Temperature 39 °F 38 °F 57 °F (2013)
Min Temperature 19 °F 26 °F -3 °F (1971)
Degree Days  
Heating Degree Days 37    
Moisture  
Dew Point 21 °F    
Average Humidity 82    
Maximum Humidity 91    
Minimum Humidity 62    
Precipitation  
Precipitation 0.00 in - - ()
Sea Level Pressure  
Sea Level Pressure 29.98 in    
Wind  
Wind Speed 1 mph (NW)    
Max Wind Speed 5 mph    
Max Gust Speed -    
Visibility 10 miles    
Events      
Averages and records for this station are not official NWS values.
T = Trace of Precipitation, MM = Missing Value Source: NWS Daily Summary

Daily Weather History Graph

Daily Weather History Graph

Search for Another Location

Airport or City:

Trip Planner

Search our weather history database for the weather conditions in past years. The results will help you decide how hot, cold, wet, or windy it might be!

Date:

Astronomy

Oct. 28, 2012 Rise Set
Actual Time 9:18 AM AKDT 6:21 PM AKDT
Civil Twilight 8:34 AM AKDT 7:05 PM AKDT
Nautical Twilight 7:46 AM AKDT 7:53 PM AKDT
Astronomical Twilight 6:59 AM AKDT 8:40 PM AKDT
Moon 5:43 PM AKDT (10/28) 8:18 AM AKDT (10/28)
Length of Visible Light 10h 30m
Length of Day
9h 03m
Waxing Gibbous, 99% of the Moon is Illuminated
Oct 28
Waxing Gibbous
Oct 29
Full
Nov 6
Last Quarter
Nov 13
New
Nov 20
First Quarter

Hourly Weather History & Observations

Time (AKDT) Temp. Windchill Dew Point Humidity Pressure Visibility Wind Dir Wind Speed Gust Speed Precip Events Conditions
12:53 AM 21.0 °F 16.2 °F 18.0 °F 88% 30.00 in 10.0 mi SSW 3.5 mph - N/A   Clear
1:53 AM 24.1 °F - 19.0 °F 81% 30.00 in 10.0 mi Calm Calm - N/A   Clear
2:53 AM 21.9 °F - 18.0 °F 85% 30.00 in 10.0 mi Calm Calm - N/A   Clear
3:53 AM 21.0 °F - 18.0 °F 88% 29.99 in 10.0 mi Calm Calm - N/A   Clear
4:53 AM 19.9 °F - 17.1 °F 89% 29.99 in 10.0 mi Calm Calm - N/A   Clear
5:53 AM 19.9 °F - 17.1 °F 89% 29.98 in 10.0 mi Calm Calm - N/A   Clear
6:53 AM 19.9 °F - 17.1 °F 89% 29.97 in 10.0 mi Calm Calm - N/A   Clear
7:53 AM 19.0 °F - 16.0 °F 88% 29.97 in 10.0 mi Calm Calm - N/A   Clear
9:53 AM 19.9 °F - 17.1 °F 89% 29.97 in 10.0 mi Calm Calm - N/A   Clear
10:53 AM 19.9 °F - 17.1 °F 89% 29.97 in 10.0 mi Calm Calm - N/A   Clear
11:53 AM 28.0 °F - 25.0 °F 88% 29.97 in 10.0 mi Calm Calm - N/A   Clear
12:53 PM 32.0 °F - 26.1 °F 79% 29.96 in 10.0 mi Calm Calm - N/A   Clear
1:53 PM 37.9 °F 34.4 °F 26.1 °F 62% 29.97 in 10.0 mi Variable 4.6 mph - N/A   Clear
2:53 PM 37.9 °F 35.5 °F 26.1 °F 62% 29.98 in 10.0 mi North 3.5 mph - N/A   Clear
3:53 PM 37.9 °F 35.5 °F 26.1 °F 62% 29.97 in 10.0 mi NNW 3.5 mph - N/A   Clear
4:53 PM 36.0 °F - 25.0 °F 64% 29.96 in 10.0 mi Calm Calm - N/A   Clear
5:53 PM 33.1 °F - 26.1 °F 75% 29.96 in 10.0 mi Calm Calm - N/A   Clear
6:53 PM 30.0 °F - 25.0 °F 82% 29.97 in 10.0 mi Calm Calm - N/A   Clear
7:53 PM 27.0 °F - 24.1 °F 89% 29.98 in 10.0 mi Calm Calm - N/A   Clear
8:53 PM 26.1 °F - 23.0 °F 88% 29.99 in 10.0 mi Calm Calm - N/A   Clear
9:53 PM 27.0 °F - 21.9 °F 81% 30.00 in 10.0 mi Calm Calm - N/A   Clear
10:53 PM 24.1 °F - 21.9 °F 91% 30.00 in 10.0 mi Calm Calm - N/A   Clear
11:53 PM 25.0 °F - 21.9 °F 88% 30.00 in 10.0 mi Calm Calm - N/A   Clear